World > North America > United States > Ohio > Farmdale  

Farmdale, OH Hourly Weather Updates

Feedback E-mail the Weather

Quick Clicks

Farmdale, OH Weather Maps

°F °C°F °C
Farmdale Weather Map
UTC Time: 7/21/2024, 22:06
Your Time:

Farmdale, OH Regional Weather

Expires:202407212300;;066047
ASUS41 KCLE 212202
RWRCLE
OHIO REGIONAL WEATHER ROUNDUP
NATIONAL WEATHER SERVICE CLEVELAND, OH
600 PM EDT SUN JUL 21 2024

NOTE: "FAIR" INDICATES FEW OR NO CLOUDS BELOW 12,000 FEET WITH NO
SIGNIFICANT WEATHER AND/OR OBSTRUCTIONS TO VISIBILITY.


OHZ009>014-019>023-028>033-038-089-212300-
   NORTHEAST OHIO
  
CITY           SKY/WX    TMP DP  RH WIND       PRES   REMARKS
CLE-HOPKINS    MOSUNNY   82  54  37 N7        30.06F                  
CLE-LAKEFRONT  PTSUNNY   81  64  56 N7        30.06F                  
CUY CO. ARPT   SUNNY     81  57  44 N7        30.10F                  
LORAIN-ELYRIA  MOSUNNY   81  58  45 N7        30.08F                  
ASHTABULA      PTSUNNY   78  63  59 N5        30.08F                  
AKRON-CANTON   PTSUNNY   82  54  37 N6        30.08F                  
WOOSTER        PTSUNNY   81  56  42 E5        30.08F                  
MANSFIELD      PTSUNNY   80  54  40 CALM      30.09F                  
YOUNGSTOWN     PTSUNNY   80  56  43 NE7       30.09F                  
$$


SKY/WX - Weather  TMP - Temperature  DP - Dew Point  RH - Humidity
WIND - Wind Direction/Speed PRES - Barometric Pressure VSB - Visibility
WCI - Wind Chill Index E13G22 Wind - East Wind 13 mph/Gusts of 22 mph

Trending Headlines

Trending Entertainment Headlines

Farmdale Radar Loop

Use the map search tool if you want to place a location marker on the radar map...

Farmdale Quick Facts

National Two Day Weather Forecast


E-mail the Farmdale Weather Forecast

Voice your opinion or tell us about page issues...